Regional Weather Roundup
Issued by NWS

Home | Current Version | Previous Version | Graphics & Text | Print | Product List | Glossary On
Versions: 1 2 3 4 5 6 7 8 9 10 11 12 13 14 15 16 17 18 19 20 21 22 23 24 25 26 27 28 29 30 31 32 33 34 35 36 37 38 39 40 41 42 43 44 45 46 47 48 49 50
000
ASUS45 KTFX 232310
RWRMT
MONTANA REGIONAL WEATHER ROUNDUP
NATIONAL WEATHER SERVICE GREAT FALLS MT
500 PM MDT FRI JUN 23 2017

NOTE: "FAIR" INDICATES FEW OR NO CLOUDS BELOW 12000 FEET WITH NO
SIGNIFICANT WEATHER AND/OR OBSTRUCTIONS TO VISIBILITY.

MTZ001>007-043-240000-
WEST OF THE DIVIDE

CITY           SKY/WX    TMP DP  RH WIND       PRES   REMARKS
KALISPELL      MOSUNNY   75  39  27 W7        30.19F
MISSOULA       SUNNY     78  30  17 VRB3      30.17F
BUTTE          SUNNY     70  27  20 VRB5      30.26S
MULLAN PASS    SUNNY     65  28  24 N6        30.32S
ANACONDA         N/A     66  34  30 N8        30.25S
DEER LODGE       N/A     70  34  26 S6        30.26S
EUREKA           N/A     75  34  22 MISG      30.19F
HAMILTON         N/A     75  34  22 NE3       30.18F
$$

MTZ008-052>055-240000-
SOUTHWEST MONTANA

CITY           SKY/WX    TMP DP  RH WIND       PRES   REMARKS
BOZEMAN        SUNNY     71  32  23 N8        30.24F
DILLON         SUNNY     71  33  24 NE6       30.23F
W YELLOWSTONE  SUNNY     66  21  18 W12       30.27S
ENNIS          SUNNY     68  28  22 NE8G14    30.29F
THREE FORKS      N/A     70  34  26 S1        30.21S
$$

MTZ009-010-012-014-046-048-049-054-240000-
EAST SLOPES AND CENTRAL MONTANA

CITY           SKY/WX    TMP DP  RH WIND       PRES   REMARKS
CUT BANK       CLOUDY    59  43  55 CALM      30.29R
GREAT FALLS    CLOUDY    65  36  34 NE6       30.26R
MALMSTROM AFB  PTSUNNY   68  37  32 NE9       30.26S
HELENA         PTSUNNY   72  32  23 VRB3      30.22S
CHOTEAU          N/A     64  37  36 E9        30.29S
$$

MTZ011-013-016-021-045-047-050-051-240000-
NORTH CENTRAL MONTANA

CITY           SKY/WX    TMP DP  RH WIND       PRES   REMARKS
HAVRE          PTSUNNY   70  34  26 NW8       30.21F
LEWISTOWN      MOSUNNY   65  36  34 VRB7G20   30.27S
N BAR RANCH    PTSUNNY   63  34  34 N17G25    30.29S
CHINOOK          N/A     66  36  32 NW15      30.20S
FORT BENTON      N/A     70  36  28 MISG      30.26S
$$

MTZ017>020-022>027-061-062-240000-
NORTHEAST MONTANA

CITY           SKY/WX    TMP DP  RH WIND       PRES   REMARKS
GLASGOW        PTSUNNY   68  29  23 NW21G29   30.16F
JORDAN           N/A     71  27  19 NW20G28   30.19S
SIDNEY         PTSUNNY   69  32  25 NW22G29   30.12F
WOLF POINT     PTSUNNY   69  30  23 NW21G29   30.15S
MALTA          PTSUNNY   70  32  24 NW17G26   30.19R
PLENTYWOOD       N/A     63  32  31 NW17G31   30.10S
POPLAR           N/A     66  32  28 NW21G29   30.14S
$$

MTZ028>42-056>058-240000-
SOUTHCENTRAL AND SOUTHEAST MONTANA

CITY           SKY/WX    TMP DP  RH WIND       PRES   REMARKS
BAKER          MOSUNNY   66  27  23 NW20G30   30.17S
BILLINGS       CLOUDY    70  31  23 N10G17    30.23S
LIVINGSTON     MOSUNNY   71  34  25 N8        30.23F
MILES CITY     SUNNY     72  25  17 NW23G30   30.18S
BIG TIMBER     PTSUNNY   66  30  26 VRB3G13   30.25S
FORSYTH          N/A     70  30  23 NW8G17    30.19F
ROUNDUP          N/A     68  32  26 NW6       30.13S
$$

REGIONAL REPORTS...DAKOTAS

CITY           SKY/WX    TMP DP  RH WIND       PRES   REMARKS
WILLISTON      PTSUNNY   67  31  26 NW16G30   30.12R
MINOT          PTSUNNY   62  34  35 NW30G38   30.05S
DICKINSON      MOSUNNY   64  26  23 NW18G31   30.10S
BEACH            N/A     66  27  22 NW20G29   30.17F
CROSBY         PTSUNNY   61  32  33 NW23G31   30.10S
TIOGA          PTSUNNY   59  32  36 NW23G32   30.11S
WATFORD CITY     N/A     63  34  34 NW22G29   30.11S
BISMARCK       MOSUNNY   68  35  29 NW22G31   30.06R
GRAND FORKS    PTSUNNY   64  42  44 NW16G30   29.91R
FARGO          CLOUDY    69  43  38 NW22G28   29.91S
BUFFALO SD       N/A     68  28  22 NW26G36   30.09F
RAPID CITY     SUNNY     70  29  21 NW26G35   30.16R
$$

REGIONAL REPORTS...WYOMING/IDAHO/WASHINGTON

CITY           SKY/WX    TMP DP  RH WIND       PRES   REMARKS
GILLETTE       MOSUNNY   63  30  28 N14G25    30.23R
SHERIDAN       SUNNY     68  34  28 N10G24    30.24S
BUFFALO WY     PTSUNNY   64  33  31 N16G25    30.27S
CODY           SUNNY     66  30  26 VRB6      30.26S
YELLOWSTONE LA   N/A     57  28  33 CALM      30.34S
IDAHO FALLS    SUNNY     73  35  25 VRB5      30.21F
SALMON         SUNNY     75  37  25 N5        30.16R
BOISE          SUNNY     82  29  14 W8        30.13F
SPOKANE        MOSUNNY   80  30  16 VRB6G18   30.20F
$$

REGIONAL REPORTS...ALBERTA

CITY           SKY/WX    TMP DP  RH WIND       PRES   REMARKS
EDMONTON       MOSUNNY   68  39  34 NW10      30.19F
CALGARY        PTSUNNY   66  37  34 N17G25    30.26R
LETHBRIDGE     MOSUNNY   68  36  30 N13G18    30.25S
MEDICINE HAT   PTSUNNY   72  37  28 NW15G24   30.19F
WATERTON GATE    N/A     64  39  39 E3          N/A
MILK RIVER       N/A     68  43  40 NW12        N/A
$$

REGIONAL REPORTS...SASKATCHEWAN

CITY           SKY/WX    TMP DP  RH WIND       PRES   REMARKS
SWIFT CURRENT  PTSUNNY   61  39  44 N16G26    30.15S
REGINA         PTSUNNY   59  37  44 N17G24    30.09R
SASKATOON      PTSUNNY   64  34  32 N21G26    30.12R
CYPRESS HILLS    N/A     55  32  41 NW8         N/A
VAL MARIE        N/A     64  30  27 NW20G25     N/A
ROCKGLEN         N/A     59  34  38 NW16G25     N/A
$$



USA.gov is the U.S. government's official web portal to all federal, state and local government web resources and services.